Weather History for Omaha, NE

Change the Weather History Date:

Wednesday, November 19, 2014

  Actual Average Record
Temperature  
Mean Temperature 29 °F 37 °F  
Max Temperature 35 °F 47 °F 73 °F (2007)
Min Temperature 22 °F 27 °F 1 °F (1914)
Degree Days  
Heating Degree Days 36 28  
Month to date heating degree days 573 441  
Since 1 July heating degree days 951 926  
Cooling Degree Days 0 0  
Month to date cooling degree days 0 0  
Year to date cooling degree days 1149 1112  
Moisture  
Dew Point 18 °F    
Average Humidity 64    
Maximum Humidity 69    
Minimum Humidity 58    
Precipitation  
Precipitation T in 0.05 in 1.88 in (1953)
Month to date precipitation 0.20 1.10  
Year to date precipitation 37.44 29.04  
Snow  
Snow T in 0.10 in - ()
Month to date snowfall 2.4 1.0  
Since 1 July snowfall 2.4 1.3  
Snow Depth T in    
Sea Level Pressure  
Sea Level Pressure 30.12 in    
Wind  
Wind Speed 15 mph (NW)    
Max Wind Speed 33 mph    
Max Gust Speed 40 mph    
Visibility 10 miles    
Events Snow    
T = Trace of Precipitation, MM = Missing Value Source: NWS Daily Summary

Daily Weather History Graph

Daily Weather History Graph

Search for Another Location

Airport:

Trip Planner

Search our weather history database for the weather conditions in past years. The results will help you decide how hot, cold, wet, or windy it might be!

Date:

Astronomy

Nov. 19, 2014 Rise Set
Actual Time 7:16 AM CST 5:01 PM CST
Civil Twilight 6:46 AM CST 5:30 PM CST
Nautical Twilight 6:12 AM CST 6:04 PM CST
Astronomical Twilight 5:40 AM CST 6:37 PM CST
Moon 4:11 AM CST (11/19) 3:31 PM CST (11/19)
Length of Visible Light 10h 44m
Length of Day
9h 44m
Waning Crescent, 8% of the Moon is Illuminated
Nov 19
Waning Crescent
Nov 22
New
Nov 29
First Quarter
Dec 6
Full
Dec 14
Last Quarter

Hourly Weather History & Observations

Time (CST) Temp. Windchill Dew Point Humidity Pressure Visibility Wind Dir Wind Speed Gust Speed Precip Events Conditions
12:52 AM 32.0 °F 23.0 °F 21.9 °F 66% 29.89 in 10.0 mi NW 11.5 mph - N/A   Mostly Cloudy
1:52 AM 34.0 °F 24.2 °F 24.1 °F 67% 29.91 in 10.0 mi NW 15.0 mph - N/A   Mostly Cloudy
2:52 AM 32.0 °F 21.6 °F 23.0 °F 69% 29.93 in 10.0 mi NNW 15.0 mph - N/A   Partly Cloudy
3:52 AM 32.0 °F 21.6 °F 23.0 °F 69% 29.96 in 10.0 mi NW 15.0 mph - N/A   Partly Cloudy
4:52 AM 32.0 °F 21.6 °F 23.0 °F 69% 29.98 in 10.0 mi NW 15.0 mph - N/A   Mostly Cloudy
5:23 AM 30.0 °F 17.9 °F 23.0 °F 75% 29.97 in 10.0 mi North 18.4 mph 27.6 mph N/A   Overcast
5:49 AM 30.2 °F 18.5 °F 21.2 °F 69% 29.99 in 10.0 mi NNW 17.3 mph 25.3 mph N/A   Overcast
5:52 AM 30.0 °F 17.9 °F 21.9 °F 72% 30.03 in 10.0 mi NNW 18.4 mph 25.3 mph N/A   Overcast
6:52 AM 28.0 °F 13.6 °F 18.0 °F 66% 30.06 in 10.0 mi NNW 24.2 mph 33.4 mph 0.00 in Snow Light Snow
7:52 AM 25.0 °F 12.2 °F 16.0 °F 69% 30.10 in 10.0 mi NNW 16.1 mph - 0.00 in   Scattered Clouds
8:36 AM 25.0 °F 10.2 °F 17.1 °F 72% 30.11 in 10.0 mi NNW 21.9 mph 29.9 mph N/A   Mostly Cloudy
8:52 AM 25.0 °F 11.3 °F 16.0 °F 69% 30.15 in 10.0 mi NNW 18.4 mph 29.9 mph N/A   Mostly Cloudy
9:48 AM 24.8 °F 9.6 °F 14.0 °F 64% 30.14 in 9.0 mi NNW 23.0 mph 31.1 mph 0.00 in   Scattered Clouds
9:52 AM 25.0 °F 8.6 °F 14.0 °F 63% 30.17 in 10.0 mi NNW 27.6 mph 35.7 mph 0.00 in   Scattered Clouds
10:52 AM 25.0 °F 9.9 °F 14.0 °F 63% 30.19 in 10.0 mi NW 23.0 mph 28.8 mph N/A   Scattered Clouds
11:52 AM 26.1 °F 11.6 °F 15.1 °F 63% 30.20 in 10.0 mi NNW 21.9 mph 28.8 mph N/A   Mostly Cloudy
12:52 PM 26.1 °F 14.0 °F 16.0 °F 66% 30.20 in 9.0 mi WNW 15.0 mph - 0.00 in Snow Light Snow
1:52 PM 27.0 °F 13.9 °F 16.0 °F 63% 30.18 in 9.0 mi NW 18.4 mph 25.3 mph 0.00 in Snow Light Snow
2:52 PM 28.0 °F 16.5 °F 16.0 °F 61% 30.18 in 9.0 mi WNW 15.0 mph - 0.00 in Snow Light Snow
3:52 PM 27.0 °F 13.9 °F 16.0 °F 63% 30.18 in 10.0 mi WNW 18.4 mph - 0.00 in   Overcast
4:52 PM 27.0 °F 16.1 °F 16.0 °F 63% 30.19 in 10.0 mi West 12.7 mph - N/A   Mostly Cloudy
5:52 PM 27.0 °F 16.7 °F 17.1 °F 66% 30.19 in 10.0 mi WNW 11.5 mph - N/A   Overcast
6:52 PM 27.0 °F 17.3 °F 17.1 °F 66% 30.20 in 10.0 mi West 10.4 mph - N/A   Overcast
7:52 PM 26.1 °F 16.8 °F 16.0 °F 66% 30.22 in 10.0 mi WNW 9.2 mph - N/A   Overcast
8:52 PM 26.1 °F 16.8 °F 16.0 °F 66% 30.22 in 10.0 mi WNW 9.2 mph - N/A   Mostly Cloudy
9:52 PM 25.0 °F 15.5 °F 16.0 °F 69% 30.22 in 10.0 mi WNW 9.2 mph - N/A   Mostly Cloudy
10:52 PM 24.1 °F 14.4 °F 15.1 °F 69% 30.22 in 10.0 mi WNW 9.2 mph - N/A   Overcast
11:52 PM 23.0 °F 13.1 °F 14.0 °F 68% 30.23 in 10.0 mi NW 9.2 mph - N/A   Mostly Cloudy